記事タイトル:Comet C/2003 A2 

最新の情報は「更新」や「再読み込み」ボタンを押してリロードしてご覧ください。

書き込み欄へ  ヘルプ
お名前: 佐藤 裕久   
Arianna E. Gleason (月惑星研究所)の通報によると、彼女は、1月10.4日UT、Kitt Peakの
Spacewatch II望遠鏡でゆっくりとした動きの彗星を発見した。J. V. Scotti は多かれ少な
かれ対称なコマが約20″横切ってたと付け加える。
1月11.3日(NEO Confirmation Pageに掲載した後)の追跡観測で、D. T. Durig と H. H. Fry
(Cordell-Lorenz天文台、0.3-m f/5.75 Schmidt-Cassegrain + CCD)は、15″〜18″の
コマを確認した。また、F. B. Zoltowski (Tebbutt天文台、0.3-m f/3.3 Schmidt-Cassegrain
+ CCD)は、コマ/尾の構造がP.A.20°から北方へP.A.200°を通して幅広い扇型の外観を持って
いるのに気づいた。1月12.0日、J. Ticha と M. Tichy (Klet天文台, 1.06-m KLENOT望遠鏡)
は、8"-10",のコマとm1 = 20.2、 m2 = 21.0を示唆した。
この天体の彗星的本質は、1月11-13日、T. Gehrels (Spacewatch II)や1月14.3日、J. G. Ries
(McDonald天文台, 0.76-m反射) によって指摘された。

発見位置は次のとおり、

     2003 UT             R.A. (2000) Decl.        m1
     Jan. 10.39264    8 55 59.44   +13 36 48.5   20.0

仮定された暫定放物線軌道と位置推算表はつぎのとおり、

Orbital elements:
    C/2003 A2
T 2003 Jan. 10.332 TT                                   MPC
q  11.52235              (2000.0)            P               Q
                   Peri.  335.571       -0.650497       -0.757232
                   Node   154.881       +0.717625       -0.638120
e   1.0            Incl.    7.957       +0.248733       -0.139293
From 39 observations 2003 Jan. 10-14.

Ephemeris:
    C/2003 A2
Date    TT    R. A. (2000) Decl.     Delta      r     Elong.  Phase   m1
2003 01 11    08 55.88   +13 37.4   10.608   11.522   157.5     1.9  19.2
2003 01 21    08 53.86   +13 47.8   10.558   11.522   167.9     1.0  19.2
2003 01 31    08 51.71   +13 59.4   10.539   11.523   176.4     0.3  19.2
2003 02 10    08 49.55   +14 11.5   10.552   11.523   169.5     0.9  19.2
2003 02 20    08 47.52   +14 23.6   10.595   11.524   159.2     1.7  19.2
2003 03 02    08 45.75   +14 35.2   10.666   11.525   148.8     2.6  19.3
2003 03 12    08 44.34   +14 45.6   10.764   11.526   138.5     3.3  19.3
2003 03 22    08 43.38   +14 54.6   10.884   11.528   128.3     3.9  19.3
2003 04 01    08 42.93   +15 01.8   11.023   11.530   118.3     4.4  19.3
2003 04 11    08 43.03   +15 06.9   11.175   11.531   108.4     4.7  19.4
2003 04 21    08 43.69   +15 09.8   11.337   11.534    98.8     4.9  19.4
2003 05 01    08 44.91   +15 10.4   11.503   11.536    89.4     5.0  19.4
2003 05 11    08 46.67   +15 08.7   11.669   11.539    80.1     4.9  19.5
2003 05 21    08 48.92   +15 04.8   11.831   11.541    71.0     4.8  19.5
2003 05 31    08 51.64   +14 58.6   11.984   11.544    62.1     4.5  19.5
2003 06 10    08 54.76   +14 50.3   12.126   11.548    53.3     4.0  19.5
2003 06 20    08 58.22   +14 40.1   12.253   11.551    44.6     3.5  19.6
2003 06 30    09 01.99   +14 28.1   12.362   11.555    36.0     3.0  19.6

(2060)=95P/Chiron が近日点の近くで示したような彗星の活動を示して、ケンタウル族
天体のように見える。

(CBET 8、MPEC 2003-A78)
[2003年1月15日 23時5分44秒]

この記事への返信をどうぞ。
氏名
E-mail URL



記事一覧に戻る